Location: Burgberg
(50.1428°N, 11.0671°E)
Time: 05:48:16
(UTC+00:00)

STARLINK-63 - Pass Details

Date: 26 January 2020
Orbit: 528 x 531 km, 53.0° (Epoch: 24 February)

Event Time Altitude Azimuth Distance (km) Brightness Sun altitude
Exits shadow 05:26:01 27° 278° (W) 1,052 4.4 -14.7°
Maximum altitude 05:28:05 61° 351° (N) 606 3.7 -14.4°
Drops below altitude 10° 05:32:05 10° 72° (ENE) 1,782 7.2 -13.7°
Sets 05:34:20 0° 76° (ENE) 2,673 8.3 -13.4°
